TimeHST,TemperatureF,Dew PointF,Humidity,Sea Level PressureIn,VisibilityMPH,Wind Direction,Wind SpeedMPH,Gust SpeedMPH,PrecipitationIn,Events,Conditions,WindDirDegrees,DateUTC
12:53 AM,73.9,68.0,82,30.02,10.0,Calm,Calm,-,N/A,,Mostly Cloudy,0,2013-09-05 10:53:00
1:34 AM,75.2,68.0,78,30.03,10.0,WNW,3.5,-,N/A,,Scattered Clouds,290,2013-09-05 11:34:00
1:53 AM,73.0,68.0,84,30.02,10.0,WNW,4.6,-,N/A,,Clear,300,2013-09-05 11:53:00
2:53 AM,72.0,66.9,84,30.01,10.0,WNW,5.8,-,N/A,,Mostly Cloudy,290,2013-09-05 12:53:00
3:53 AM,72.0,66.9,84,30.00,10.0,WNW,6.9,-,N/A,,Mostly Cloudy,290,2013-09-05 13:53:00
4:53 AM,73.0,66.9,81,30.01,10.0,WNW,3.5,-,N/A,,Scattered Clouds,300,2013-09-05 14:53:00
5:53 AM,71.1,66.0,84,30.02,10.0,WNW,8.1,-,N/A,,Scattered Clouds,290,2013-09-05 15:53:00
6:24 AM,71.6,66.2,83,30.03,10.0,West,6.9,-,0.00,,Overcast,280,2013-09-05 16:24:00
6:46 AM,73.4,69.8,88,30.04,2.0,North,5.8,-,0.11,Rain,Heavy Rain,360,2013-09-05 16:46:00
6:53 AM,73.9,70.0,87,30.04,10.0,NNW,3.5,-,0.11,Rain,Light Rain,340,2013-09-05 16:53:00
7:53 AM,75.9,70.0,82,30.04,10.0,NW,4.6,-,0.00,,Partly Cloudy,320,2013-09-05 17:53:00
8:53 AM,78.1,70.0,76,30.06,10.0,Calm,Calm,-,0.00,,Clear,0,2013-09-05 18:53:00
9:31 AM,78.8,69.8,74,30.07,10.0,Variable,5.8,-,0.00,,Mostly Cloudy,0,2013-09-05 19:31:00
9:53 AM,82.0,70.0,67,30.06,10.0,East,8.1,-,0.00,,Scattered Clouds,90,2013-09-05 19:53:00
10:53 AM,82.9,68.0,60,30.06,10.0,ENE,8.1,-,N/A,,Clear,70,2013-09-05 20:53:00
11:53 AM,84.0,68.0,58,30.05,10.0,ENE,9.2,-,N/A,,Clear,60,2013-09-05 21:53:00
12:53 PM,84.0,66.9,56,30.04,10.0,ENE,9.2,-,N/A,,Clear,70,2013-09-05 22:53:00
1:53 PM,82.9,66.0,56,30.03,10.0,East,9.2,-,N/A,,Clear,80,2013-09-05 23:53:00
2:53 PM,84.0,66.0,55,30.02,10.0,East,8.1,-,N/A,,Clear,100,2013-09-06 00:53:00
3:53 PM,82.9,68.0,60,30.02,10.0,East,6.9,-,N/A,,Clear,90,2013-09-06 01:53:00
4:53 PM,82.9,68.0,60,30.02,10.0,NE,6.9,-,N/A,,Clear,50,2013-09-06 02:53:00
5:53 PM,81.0,66.0,60,30.04,10.0,East,6.9,-,N/A,,Clear,80,2013-09-06 03:53:00
6:53 PM,79.0,66.9,66,30.05,10.0,ENE,5.8,-,N/A,,Clear,70,2013-09-06 04:53:00
7:53 PM,78.1,66.9,68,30.06,10.0,East,6.9,-,N/A,,Partly Cloudy,80,2013-09-06 05:53:00
8:53 PM,78.1,66.9,68,30.09,10.0,ENE,6.9,-,N/A,,Scattered Clouds,70,2013-09-06 06:53:00
9:53 PM,75.0,66.9,76,30.10,10.0,WNW,5.8,-,N/A,,Scattered Clouds,300,2013-09-06 07:53:00
10:34 PM,75.2,66.2,73,30.11,10.0,WNW,3.5,-,N/A,,Mostly Cloudy,300,2013-09-06 08:34:00
10:42 PM,73.4,66.2,78,30.11,10.0,WNW,3.5,-,N/A,,Mostly Cloudy,300,2013-09-06 08:42:00
10:53 PM,73.9,66.9,79,30.10,10.0,NW,3.5,-,N/A,,Scattered Clouds,310,2013-09-06 08:53:00
11:24 PM,73.4,66.2,78,30.11,10.0,WNW,4.6,-,N/A,,Mostly Cloudy,300,2013-09-06 09:24:00
11:53 PM,73.0,66.9,81,30.09,10.0,WNW,5.8,-,N/A,,Mostly Cloudy,290,2013-09-06 09:53:00